Location: Poughquag
(41.6090°N, 73.6820°W)
Time: 18:32:04
(UTC-05:00)

A-11 Canister half - Pass Details

Date: 15 December 2023
Orbit: 1526 x 1682 km, 47.3° (Epoch: 23 February)

Event Time Altitude Azimuth Distance (km) Brightness Sun altitude
Rises 17:26:00 0° 255° (WSW) 4,899 13.8 -11.0°
Reaches altitude 10° 17:29:10 10° 258° (WSW) 3,924 12.6 -11.6°
Maximum altitude 17:39:18 73° 343° (NNW) 1,742 9.3 -13.3°
Enters shadow 17:47:23 18° 66° (ENE) 3,310 10.1 -14.8°
